Regional Weather Roundup
Issued by NWS

Home | Current Version | Previous Version | Graphics & Text | Print | Product List | Glossary On
Versions: 1 2 3 4 5 6 7 8 9 10 11 12 13 14 15 16 17 18 19 20 21 22 23 24 25 26 27 28 29 30 31 32 33 34 35 36 37 38 39 40 41 42 43 44 45 46 47 48 49 50
000
ASUS45 KTFX 170404
RWRMT
MONTANA HOURLY WEATHER ROUNDUP
NATIONAL WEATHER SERVICE GREAT FALLS MT
1004 PM MDT WED APR 16 2014

NOTE: "FAIR" INDICATES FEW OR NO CLOUDS BELOW 12000 FEET WITH NO
SIGNIFICANT WEATHER AND/OR OBSTRUCTIONS TO VISIBILITY.

* THESE STATIONS ARE NOT UNDER NWS QUALITY CONTROL. THEY DO NOT
   REPORT WEATHER SUCH AS PRECIPITATION OR FOG.

MTZ001>007-043-170500-
WEST OF THE DIVIDE
CITY           SKY/WX    TMP DP  RH WIND       PRES   REMARKS
KALISPELL      CLOUDY    43  34  71 SE13      29.96F
MISSOULA       CLOUDY    45  32  60 CALM      30.00S
BUTTE          MOCLDY    37  19  48 NW5       30.00R WCI  33
MULLAN PASS    LGT SNOW  30  30 100 SW7       29.96R VSB 3/4  WCI  23
* ESSEX        N/A       36  33  89 SE1        N/A
* LINCOLN      N/A       34  29  82 N/A        N/A
* LOOKOUT PASS N/A       35  34  96 N/A        N/A
* POLSON       N/A       37  35  92 SE1        N/A
* SEELEY LAKE  N/A       38  31  76 NE1        N/A
* THOMP F APT  CLOUDY    38  16  41 NW1G8      N/A
* YAAK HILL    N/A       47  30  52 E1         N/A
$$

MTZ008-052>055-170500-
SOUTHWEST MONTANA
CITY           SKY/WX    TMP DP  RH WIND       PRES   REMARKS
BOZEMAN        CLOUDY    39  28  65 CALM      29.99R
DILLON         CLOUDY    39  18  43 CALM      29.98R
W YELLOWSTONE  N/A       34  20  57 N/A        N/A
* THREE FORKS  CLOUDY    45  27  49 N/A        N/A
* BOULDER HILL N/A       34  20  57 W2         N/A
* MONIDA PASS  N/A       38  13  36 S6         N/A   WCI  33
* RAYNOLDS PAS N/A       34  21  59 SW1        N/A
* WHITEHALL    N/A       41  20  43 N5         N/A
* WISE RIVER   N/A       35  20  54 W6         N/A   WCI  30
$$

MTZ009>010-012-014-046-048-049-054-170500-
EAST SLOPES AND CENTRAL MONTANA
CITY           SKY/WX    TMP DP  RH WIND       PRES   REMARKS
CUT BANK       MOCLDY    36  30  79 SE12      29.94F WCI  28
GREAT FALLS    CLEAR     36  32  85 SE9       29.97S WCI  29
HELENA         PTCLDY    43  27  53 SW5       29.98R
MALMSTROM AFB  CLEAR     34  30  85 SE9       29.95F WCI  27
* CONRAD       PTCLDY    37  34  89 N/A        N/A
* DEARBORN     N/A       38  31  76 E1         N/A
* EAST GLACIER N/A       34  28  79 W17G22     N/A   WCI  23
* MONARCH      N/A       29  26  89 SE6        N/A   WCI  23
* PENDROY      N/A       35  34  96 S6         N/A   WCI  30
* ROGERS PASS  N/A       34  26  73 SE4G9      N/A
* SAINT MARY   N/A       35  30  82 S5G11      N/A   WCI  31
* SWEET GRASS  N/A       34  34 100 S16        N/A   WCI  24
$$

MTZ011-013-016-021-035-040-045-047-050-051-170500-
NORTH CENTRAL MONTANA
CITY           SKY/WX    TMP DP  RH WIND       PRES   REMARKS
HAVRE          MOCLDY    36  25  64 E14       30.02F WCI  27
LEWISTOWN      LGT SNOW  34  30  85 CALM      30.03R
* CHESTER      N/A       37  33  85 SE6G12     N/A   WCI  32
* DENTON       N/A       36  34  92 S6         N/A   WCI  31
* GEYSER       N/A       33  32  96 SE7        N/A   WCI  27
* JUDITH GAP   N/A       32  31  96 SE12       N/A   WCI  23
* LOMA         N/A       40  29  65 E12        N/A   WCI  33
$$

MTZ017>020-022>027-061-062-170500-
NORTHEAST MONTANA
CITY           SKY/WX    TMP DP  RH WIND       PRES   REMARKS
GLASGOW        PTCLDY    28  19  69 E14       30.19R WCI  17
GLENDIVE       CLOUDY    28  21  75 E12       30.20S WCI  18
JORDAN         CLOUDY    34  21  59 E16       30.13S WCI  24
SIDNEY         CLOUDY    28  19  69 SE10      30.25S WCI  19
WOLF POINT     CLOUDY    30  19  64 E10       30.24R WCI  21
* BEAVER HILL  N/A       27  21  78 E13        N/A   WCI  16
* CIRCLE       N/A       28  21  75 NE7        N/A   WCI  21
* LINDSAY DVD  N/A       27  21  78 E11        N/A   WCI  17
* NAVAJO       N/A       24  18  78 E7         N/A   WCI  16
* SACO         N/A       31  19  61 E18G24     N/A   WCI  19
$$

MTZ028>042-056>058-170500-
SOUTHCENTRAL AND SOUTHEAST MONTANA
CITY           SKY/WX    TMP DP  RH WIND       PRES   REMARKS
BAKER          CLOUDY    30  23  75 SE16G21   30.16R WCI  19
BILLINGS       MOCLDY    37  32  82 NE6       30.06R WCI  32
LIVINGSTON     CLOUDY    37  32  82 E16       30.00R WCI  28
MILES CITY     CLOUDY    34  25  70 NE10      30.13R WCI  26
* LAUREL APT   MOCLDY    39  28  65 NE7        N/A   WCI  34
* ROUNDUP APT  MOCLDY    36  30  79 N/A        N/A
* HYSHAM       N/A       38  25  60 E3G8       N/A
* LAME DEER    N/A       32  26  79 NE6        N/A   WCI  26
* REED POINT   N/A       39  35  86 NE1        N/A
* ROSCOE HILL  N/A       32  30  92 E6         N/A   WCI  26
$$

REGIONAL REPORTS...DAKOTAS
CITY           SKY/WX    TMP DP  RH WIND       PRES   REMARKS
WILLISTON      PTCLDY   N/A N/A N/A N/A       30.27S
DICKINSON      CLOUDY    27  19  72 E8        30.19S WCI  19
CROSBY         CLOUDY    25  23  92 E5        30.29R WCI  19
TIOGA          CLOUDY    25  25 100 E7        30.28S WCI  17
WATFORD CITY   CLOUDY    27  23  85 E6        30.24R WCI  20
BISMARCK       CLOUDY    30  16  56 NE8       30.26R WCI  22
GRAND FORKS    CLEAR     28  21  75 N10       30.25R WCI  19
FARGO          CLEAR     30  19  64 N14       30.22R WCI  19
BUFFALO SD     MOCLDY    30  23  75 E13       30.11R WCI  20
RAPID CITY     CLOUDY    30  25  82 SE3       30.18R
$$

REGIONAL REPORTS...WYOMING/IDAHO/WASHINGTON
CITY           SKY/WX    TMP DP  RH WIND       PRES   REMARKS
GILLETTE       PTCLDY    32  28  85 SW3       30.06S
SHERIDAN       CLOUDY    39  32  76 W12       30.07R WCI  32
CODY           PTCLDY    34  28  79 N5        30.02S WCI  29
YELLOWSTONE LA MOCLDY    28  14  56 W7        30.04R WCI  21
SALMON         PTCLDY    43  19  38 SE6       29.97R
MULLAN PASS    LGT SNOW  30  30 100 SW7       29.96S VSB 3/4  WCI  23
SPOKANE        MOCLDY    48  37  66 S7        29.96R
$$

REGIONAL REPORTS...ALBERTA
CITY           SKY/WX    TMP DP  RH WIND       PRES   REMARKS
LETHBRIDGE     LGT RAIN  34  32  92 E8        29.94F WCI  27
$$

REGIONAL REPORTS...SASKATCHEWAN
CITY           SKY/WX    TMP DP  RH WIND       PRES   REMARKS
SWIFT CURRENT  LGT SNOW  25  23  92 SE16G22   30.13S WCI  12

$$




USA.gov is the U.S. government's official web portal to all federal, state and local government web resources and services.